SWR14V LSZH-KJFK

Flight info

Callsign SWR14V
Flight time N/A
Altitude 34000
Route VEBIT1Y VEBIT T10 TORPA DCT REKLA DCT RLP DCT ROTSI/N0463F360 DCT AMODO DCT COHPA UM729 RESMI UN491 LGL UN502 JSY DCT LIZAD DCT ARKIL DCT TOBOR/M081F370 DCT 5230N02000W 5130N03000W 5030N04000W 4930N05000W DCT IBERG/N0460F380 N364A TUSKY DCT PLYMM PARCH4
Aircraft A339/H-SADE1E2E3GHIJ3J5M1P2RWXY/LB2D1

Departure

Time 2026-04-30 07:31
Airport Zürich Airport (LSZH)

Arrival

Time N/A
Airport John F. Kennedy International Airport (KJFK)
Time Latitude Longitude Altitude Speed Heading
2026-04-30 07:19 47.45573 8.55743 1405 ft 0 kts
2026-04-30 07:26 47.45583 8.55745 1405 ft 2 kts
2026-04-30 07:26 47.45599 8.55760 1405 ft 4 kts 43°
2026-04-30 07:26 47.45616 8.55814 1406 ft 7 kts 73°
2026-04-30 07:27 47.45629 8.55901 1407 ft 10 kts 84°
2026-04-30 07:27 47.45627 8.56013 1409 ft 11 kts 94°
2026-04-30 07:27 47.45623 8.56136 1412 ft 12 kts 94°
2026-04-30 07:27 47.45615 8.56274 1415 ft 14 kts 99°
2026-04-30 07:28 47.45599 8.56422 1418 ft 15 kts 99°
2026-04-30 07:28 47.45586 8.56580 1421 ft 16 kts 97°
2026-04-30 07:28 47.45572 8.56753 1423 ft 17 kts 97°
2026-04-30 07:28 47.45567 8.56869 1425 ft 11 kts 93°
2026-04-30 07:29 47.45580 8.56979 1426 ft 10 kts 42°
2026-04-30 07:29 47.45649 8.56992 1425 ft 11 kts 329°
2026-04-30 07:29 47.45674 8.56890 1422 ft 0 kts 274°
2026-04-30 07:30 47.45674 8.56866 1421 ft 13 kts 269°
2026-04-30 07:31 47.45697 8.56408 1415 ft 79 kts 280°
2026-04-30 07:31 47.45787 8.55291 1394 ft 139 kts 276°
2026-04-30 07:31 47.45895 8.53608 1514 ft 178 kts 281°
2026-04-30 07:31 47.46037 8.51828 2143 ft 176 kts 276°
2026-04-30 07:32 47.46150 8.50043 2769 ft 177 kts 279°
2026-04-30 07:32 47.46241 8.48240 3244 ft 178 kts 264°
2026-04-30 07:32 47.45787 8.46573 3623 ft 178 kts 224°
2026-04-30 07:32 47.44823 8.45418 3926 ft 183 kts 211°
2026-04-30 07:33 47.43772 8.44226 4181 ft 198 kts 223°
2026-04-30 07:33 47.42825 8.42632 4466 ft 214 kts 231°
2026-04-30 07:33 47.41902 8.40820 4762 ft 229 kts 233°
2026-04-30 07:33 47.40947 8.38841 5068 ft 245 kts 234°
2026-04-30 07:34 47.39940 8.36719 5374 ft 262 kts 234°
2026-04-30 07:34 47.38911 8.34426 5713 ft 277 kts 238°
2026-04-30 07:34 47.37969 8.31904 6296 ft 281 kts 241°
2026-04-30 07:34 47.37071 8.29369 6952 ft 283 kts 242°
2026-04-30 07:35 47.36158 8.26781 7574 ft 285 kts 242°
2026-04-30 07:35 47.35251 8.24219 8156 ft 288 kts 242°
2026-04-30 07:35 47.34314 8.21576 8774 ft 290 kts 242°
2026-04-30 07:35 47.33386 8.18969 9352 ft 293 kts 242°
2026-04-30 07:36 47.32436 8.16301 9901 ft 295 kts 243°
2026-04-30 07:36 47.31479 8.13616 10529 ft 298 kts 243°